Time,TemperatureF,DewpointF,PressureIn,WindDirection,WindDirectionDegrees,WindSpeedMPH,WindSpeedGustMPH,Humidity,HourlyPrecipIn,Conditions,Clouds,dailyrainin,SoftwareType,DateUTC
2013-01-12 00:03:00,59.9,56.0,29.80,South,174,1.0,10.0,87,0.00,,,0.00,weatherlink.com 1.10,2013-01-12 06:03:00,
2013-01-12 00:18:00,59.7,56.0,29.80,SE,141,3.0,5.0,87,0.00,,,0.00,weatherlink.com 1.10,2013-01-12 06:18:00,
2013-01-12 00:33:00,59.6,56.0,29.80,SSE,152,1.0,5.0,88,0.00,,,0.00,weatherlink.com 1.10,2013-01-12 06:33:00,
2013-01-12 00:48:00,59.6,56.0,29.81,SE,141,3.0,6.0,89,0.00,,,0.00,weatherlink.com 1.10,2013-01-12 06:48:00,
2013-01-12 01:18:00,59.2,56.0,29.84,NW,314,1.0,3.0,90,0.00,,,0.00,weatherlink.com 1.10,2013-01-12 07:18:00,
2013-01-12 01:33:00,59.2,56.0,29.83,NW,304,0.0,5.0,90,0.00,,,0.00,weatherlink.com 1.10,2013-01-12 07:33:00,
2013-01-12 01:48:00,59.2,56.0,29.84,NNW,339,1.0,6.0,89,0.00,,,0.00,weatherlink.com 1.10,2013-01-12 07:48:00,
2013-01-12 02:03:00,58.7,55.0,29.81,ENE,71,2.0,4.0,88,0.00,,,0.00,weatherlink.com 1.10,2013-01-12 08:03:00,
2013-01-12 02:18:00,58.1,55.0,29.81,North,5,0.0,2.0,89,0.00,,,0.00,weatherlink.com 1.10,2013-01-12 08:18:00,
2013-01-12 02:33:00,57.7,55.0,29.81,SSW,201,0.0,1.0,90,0.00,,,0.00,weatherlink.com 1.10,2013-01-12 08:33:00,
2013-01-12 02:49:00,57.6,55.0,29.83,North,4,2.0,2.0,90,0.00,,,0.00,weatherlink.com 1.10,2013-01-12 08:49:00,
2013-01-12 03:04:00,58.0,55.0,29.82,North,355,2.0,4.0,89,0.00,,,0.00,weatherlink.com 1.10,2013-01-12 09:04:00,
2013-01-12 03:19:00,57.7,52.0,29.81,NNW,336,1.0,7.0,82,0.00,,,0.00,weatherlink.com 1.10,2013-01-12 09:19:00,
2013-01-12 03:34:00,56.9,51.0,29.81,North,349,0.0,0.0,80,0.00,,,0.00,weatherlink.com 1.10,2013-01-12 09:34:00,
2013-01-12 03:49:00,56.3,50.0,29.82,North,6,0.0,1.0,80,0.00,,,0.00,weatherlink.com 1.10,2013-01-12 09:49:00,
2013-01-12 04:04:00,56.1,48.0,29.83,NNW,338,1.0,2.0,75,0.00,,,0.00,weatherlink.com 1.10,2013-01-12 10:04:00,
2013-01-12 04:19:00,56.1,46.0,29.84,NNW,346,0.0,3.0,68,0.00,,,0.00,weatherlink.com 1.10,2013-01-12 10:19:00,
2013-01-12 04:34:00,56.1,41.0,29.83,WNW,303,1.0,9.0,57,0.00,,,0.00,weatherlink.com 1.10,2013-01-12 10:34:00,
2013-01-12 04:49:00,55.4,39.0,29.82,North,357,4.0,9.0,54,0.00,,,0.00,weatherlink.com 1.10,2013-01-12 10:49:00,
2013-01-12 05:04:00,55.2,34.0,29.82,North,354,5.0,7.0,45,0.00,,,0.00,weatherlink.com 1.10,2013-01-12 11:04:00,
2013-01-12 05:19:00,54.8,34.0,29.81,North,5,4.0,11.0,45,0.00,,,0.00,weatherlink.com 1.10,2013-01-12 11:19:00,
2013-01-12 05:34:00,54.5,33.0,29.81,NNW,342,4.0,9.0,44,0.00,,,0.00,weatherlink.com 1.10,2013-01-12 11:34:00,
2013-01-12 05:49:00,54.1,32.0,29.82,NNW,345,9.0,12.0,43,0.00,,,0.00,weatherlink.com 1.10,2013-01-12 11:49:00,
2013-01-12 06:04:00,53.7,31.0,29.84,NNW,343,3.0,11.0,43,0.00,,,0.00,weatherlink.com 1.10,2013-01-12 12:04:00,
2013-01-12 06:19:00,53.4,32.0,29.84,NNE,32,7.0,9.0,44,0.00,,,0.00,weatherlink.com 1.10,2013-01-12 12:19:00,
2013-01-12 06:34:00,53.0,30.0,29.84,NNE,22,10.0,12.0,42,0.00,,,0.00,weatherlink.com 1.10,2013-01-12 12:34:00,
2013-01-12 06:49:00,52.6,30.0,29.85,North,360,11.0,13.0,42,0.00,,,0.00,weatherlink.com 1.10,2013-01-12 12:49:00,
2013-01-12 07:04:00,52.1,29.0,29.85,North,1,5.0,13.0,42,0.00,,,0.00,weatherlink.com 1.10,2013-01-12 13:04:00,
2013-01-12 07:19:00,51.7,29.0,29.84,NNE,19,11.0,14.0,42,0.00,,,0.00,weatherlink.com 1.10,2013-01-12 13:19:00,
2013-01-12 07:34:00,51.1,28.0,29.85,NNE,32,4.0,15.0,41,0.00,,,0.00,weatherlink.com 1.10,2013-01-12 13:34:00,
2013-01-12 07:49:00,50.6,29.0,29.86,North,360,8.0,15.0,44,0.00,,,0.00,weatherlink.com 1.10,2013-01-12 13:49:00,
2013-01-12 08:04:00,50.2,30.0,29.88,NNE,27,5.0,15.0,46,0.00,,,0.00,weatherlink.com 1.10,2013-01-12 14:04:00,
2013-01-12 08:19:00,49.7,30.0,29.87,NE,44,7.0,12.0,47,0.00,,,0.00,weatherlink.com 1.10,2013-01-12 14:19:00,
2013-01-12 08:34:00,49.4,32.0,29.87,ENE,60,6.0,12.0,51,0.00,,,0.00,weatherlink.com 1.10,2013-01-12 14:34:00,
2013-01-12 08:49:00,48.5,32.0,29.88,NNE,32,8.0,13.0,53,0.00,,,0.00,weatherlink.com 1.10,2013-01-12 14:49:00,
2013-01-12 09:04:00,47.7,33.0,29.88,North,5,6.0,14.0,58,0.00,,,0.00,weatherlink.com 1.10,2013-01-12 15:04:00,
2013-01-12 09:20:00,46.9,33.0,29.88,NNE,31,11.0,16.0,60,0.00,,,0.00,weatherlink.com 1.10,2013-01-12 15:20:00,
2013-01-12 09:35:00,46.5,34.0,29.89,NE,36,6.0,13.0,63,0.00,,,0.00,weatherlink.com 1.10,2013-01-12 15:35:00,
2013-01-12 09:50:00,45.8,35.0,29.88,NNE,25,9.0,14.0,65,0.00,,,0.00,weatherlink.com 1.10,2013-01-12 15:50:00,
2013-01-12 10:05:00,45.4,35.0,29.87,NE,41,8.0,14.0,66,0.00,,,0.00,weatherlink.com 1.10,2013-01-12 16:05:00,
2013-01-12 10:20:00,45.3,35.0,29.88,North,354,7.0,14.0,68,0.00,,,0.00,weatherlink.com 1.10,2013-01-12 16:20:00,
2013-01-12 10:35:00,45.0,35.0,29.88,North,8,6.0,15.0,68,0.00,,,0.00,weatherlink.com 1.10,2013-01-12 16:35:00,
2013-01-12 10:50:00,44.5,36.0,29.86,NE,34,6.0,14.0,72,0.00,,,0.00,weatherlink.com 1.10,2013-01-12 16:50:00,
2013-01-12 11:05:00,44.3,37.0,29.86,NNE,15,6.0,14.0,74,0.00,,,0.00,weatherlink.com 1.10,2013-01-12 17:05:00,
2013-01-12 11:20:00,44.0,37.0,29.86,NNE,20,12.0,13.0,75,0.00,,,0.00,weatherlink.com 1.10,2013-01-12 17:20:00,
2013-01-12 11:35:00,44.3,36.0,29.85,NE,51,9.0,13.0,73,0.00,,,0.00,weatherlink.com 1.10,2013-01-12 17:35:00,
2013-01-12 11:50:00,43.9,34.0,29.85,North,5,8.0,14.0,69,0.00,,,0.00,weatherlink.com 1.10,2013-01-12 17:50:00,
2013-01-12 12:05:00,43.1,33.0,29.84,North,352,8.0,13.0,68,0.00,,,0.00,weatherlink.com 1.10,2013-01-12 18:05:00,
2013-01-12 12:20:00,42.3,32.0,29.82,NE,54,6.0,16.0,67,0.00,,,0.00,weatherlink.com 1.10,2013-01-12 18:20:00,
2013-01-12 12:35:00,42.0,32.0,29.81,North,359,5.0,15.0,67,0.00,,,0.00,weatherlink.com 1.10,2013-01-12 18:35:00,
2013-01-12 12:50:00,41.3,32.0,29.78,NW,323,4.0,16.0,69,0.00,,,0.00,weatherlink.com 1.10,2013-01-12 18:50:00,
2013-01-12 13:06:00,37.5,34.0,29.82,NNE,27,4.0,14.0,86,0.29,,,0.29,weatherlink.com 1.10,2013-01-12 19:06:00,
2013-01-12 13:20:00,36.4,34.0,29.75,NE,45,15.0,15.0,90,0.66,,,0.66,weatherlink.com 1.10,2013-01-12 19:20:00,
2013-01-12 13:35:00,36.8,35.0,29.80,NNW,330,5.0,13.0,92,0.71,,,0.71,weatherlink.com 1.10,2013-01-12 19:35:00,
2013-01-12 13:50:00,36.8,35.0,29.80,NNW,340,4.0,13.0,91,0.72,,,0.72,weatherlink.com 1.10,2013-01-12 19:50:00,
2013-01-12 14:05:00,36.2,33.0,29.81,NNW,343,8.0,17.0,89,0.43,,,0.72,weatherlink.com 1.10,2013-01-12 20:05:00,
2013-01-12 14:20:00,35.9,33.0,29.81,NNW,343,12.0,16.0,88,0.06,,,0.72,weatherlink.com 1.10,2013-01-12 20:20:00,
2013-01-12 14:35:00,36.3,32.0,29.81,NE,42,10.0,17.0,84,0.00,,,0.72,weatherlink.com 1.10,2013-01-12 20:35:00,
2013-01-12 14:50:00,36.3,31.0,29.83,NNW,345,13.0,20.0,82,0.00,,,0.72,weatherlink.com 1.10,2013-01-12 20:50:00,
2013-01-12 15:05:00,36.0,30.0,29.85,NW,326,6.0,17.0,80,0.00,,,0.72,weatherlink.com 1.10,2013-01-12 21:05:00,
2013-01-12 15:20:00,35.7,30.0,29.85,NNE,19,6.0,17.0,80,0.00,,,0.72,weatherlink.com 1.10,2013-01-12 21:20:00,
2013-01-12 15:35:00,35.2,30.0,29.86,North,354,10.0,14.0,80,0.00,,,0.72,weatherlink.com 1.10,2013-01-12 21:35:00,
2013-01-12 15:50:00,34.7,29.0,29.87,North,352,9.0,19.0,80,0.00,,,0.72,weatherlink.com 1.10,2013-01-12 21:50:00,
2013-01-12 16:05:00,34.4,29.0,29.90,North,1,10.0,18.0,80,0.00,,,0.72,weatherlink.com 1.10,2013-01-12 22:05:00,
2013-01-12 16:20:00,32.5,29.0,29.89,North,9,6.0,16.0,88,0.08,,,0.80,weatherlink.com 1.10,2013-01-12 22:20:00,
2013-01-12 16:35:00,32.3,29.0,29.87,NNE,23,12.0,20.0,88,0.08,,,0.80,weatherlink.com 1.10,2013-01-12 22:35:00,
2013-01-12 16:50:00,32.2,29.0,29.88,North,9,11.0,18.0,86,0.09,,,0.81,weatherlink.com 1.10,2013-01-12 22:50:00,
2013-01-12 17:05:00,32.0,28.0,29.91,NNE,27,7.0,19.0,86,0.14,,,0.86,weatherlink.com 1.10,2013-01-12 23:05:00,
2013-01-12 17:21:00,31.8,29.0,29.92,NNW,345,13.0,19.0,88,0.06,,,0.86,weatherlink.com 1.10,2013-01-12 23:21:00,
2013-01-12 17:36:00,31.7,29.0,29.93,NNW,345,8.0,15.0,89,0.06,,,0.86,weatherlink.com 1.10,2013-01-12 23:36:00,
2013-01-12 17:51:00,31.7,29.0,29.93,ENE,58,9.0,17.0,89,0.05,,,0.86,weatherlink.com 1.10,2013-01-12 23:51:00,
2013-01-12 18:06:00,31.8,29.0,29.96,NNW,338,11.0,13.0,90,0.00,,,0.86,weatherlink.com 1.10,2013-01-13 00:06:00,
2013-01-12 18:21:00,31.8,29.0,29.94,North,359,6.0,17.0,89,0.00,,,0.86,weatherlink.com 1.10,2013-01-13 00:21:00,
2013-01-12 18:36:00,31.9,29.0,29.95,North,355,7.0,17.0,88,0.00,,,0.86,weatherlink.com 1.10,2013-01-13 00:36:00,
2013-01-12 18:51:00,31.9,29.0,29.96,WNW,292,7.0,17.0,88,0.00,,,0.86,weatherlink.com 1.10,2013-01-13 00:51:00,
2013-01-12 19:06:00,31.7,28.0,29.98,NNW,347,10.0,15.0,85,0.00,,,0.86,weatherlink.com 1.10,2013-01-13 01:06:00,
2013-01-12 19:21:00,31.7,27.0,29.98,NNE,25,14.0,17.0,82,0.00,,,0.86,weatherlink.com 1.10,2013-01-13 01:21:00,
2013-01-12 19:36:00,31.7,26.0,29.98,NNE,26,11.0,19.0,80,0.00,,,0.86,weatherlink.com 1.10,2013-01-13 01:36:00,
2013-01-12 19:51:00,31.6,27.0,29.98,NNW,340,11.0,14.0,83,0.00,,,0.86,weatherlink.com 1.10,2013-01-13 01:51:00,
2013-01-12 20:06:00,30.7,26.0,29.99,North,6,11.0,14.0,84,0.00,,,0.86,weatherlink.com 1.10,2013-01-13 02:06:00,
2013-01-12 20:21:00,30.3,26.0,29.98,NNW,343,13.0,15.0,84,0.00,,,0.86,weatherlink.com 1.10,2013-01-13 02:21:00,
2013-01-12 20:36:00,30.2,26.0,30.00,North,352,10.0,14.0,83,0.00,,,0.86,weatherlink.com 1.10,2013-01-13 02:36:00,
2013-01-12 20:51:00,30.1,25.0,30.00,North,7,8.0,18.0,82,0.00,,,0.86,weatherlink.com 1.10,2013-01-13 02:51:00,
2013-01-12 21:06:00,30.1,25.0,29.99,NNE,30,6.0,18.0,81,0.00,,,0.86,weatherlink.com 1.10,2013-01-13 03:06:00,
2013-01-12 21:21:00,29.9,25.0,29.99,North,359,4.0,15.0,81,0.00,,,0.86,weatherlink.com 1.10,2013-01-13 03:21:00,
2013-01-12 21:36:00,29.8,24.0,30.00,NNW,333,10.0,16.0,79,0.00,,,0.86,weatherlink.com 1.10,2013-01-13 03:36:00,
2013-01-12 21:51:00,29.6,24.0,30.01,NE,55,11.0,17.0,78,0.00,,,0.86,weatherlink.com 1.10,2013-01-13 03:51:00,
2013-01-12 22:06:00,29.6,24.0,30.01,NNW,343,12.0,17.0,78,0.00,,,0.86,weatherlink.com 1.10,2013-01-13 04:06:00,
2013-01-12 22:22:00,29.7,23.0,30.05,North,350,2.0,15.0,77,0.00,,,0.86,weatherlink.com 1.10,2013-01-13 04:22:00,
2013-01-12 22:37:00,29.8,23.0,30.03,North,349,5.0,16.0,77,0.00,,,0.86,weatherlink.com 1.10,2013-01-13 04:37:00,
2013-01-12 22:52:00,29.9,24.0,30.03,North,353,7.0,16.0,77,0.00,,,0.86,weatherlink.com 1.10,2013-01-13 04:52:00,
2013-01-12 23:07:00,29.9,23.0,30.01,NNE,15,13.0,19.0,76,0.00,,,0.86,weatherlink.com 1.10,2013-01-13 05:07:00,
2013-01-12 23:22:00,29.9,23.0,30.04,NNW,336,12.0,16.0,75,0.00,,,0.86,weatherlink.com 1.10,2013-01-13 05:22:00,
2013-01-12 23:37:00,29.8,22.0,30.03,North,3,9.0,19.0,74,0.00,,,0.86,weatherlink.com 1.10,2013-01-13 05:37:00,
2013-01-12 23:52:00,29.7,23.0,30.04,North,349,6.0,22.0,75,0.00,,,0.86,weatherlink.com 1.10,2013-01-13 05:52:00,